sat.trackr.live / text

‹ back to catalog

STARLINK-36302

NORAD 68524 · 2026-068S

PAYLOAD ACTIVE UNKNOWN

§ Identity

Operator
Country
US
Launch date
2026-03-30
Launch site
AFETR
Launch vehicle
Mass (kg)
RCS (m²)

Purposes: comms

External: N2YO · Heavens-Above · Gunter

§ Orbital elements

Epoch: 2026-09-19T18:17:54.609504Z

Period
93.85 min
Inclination
53.1591°
Eccentricity
0.0001289
Mean motion
15.34394305 rev/d
Perigee alt
461.8 km
Apogee alt
463.6 km
Semi-major
6,840.9 km
B*
2.9744e-4
RAAN
303.1883°
Arg perigee
82.4623°
Mean anomaly
277.6526°
Rev number
2,672

§ Raw data

STARLINK-363021 68524U 26068S   26262.76243761  .00009684  00000+0  29744-3 0  99962 68524  53.1591 303.1883 0001289  82.4623 277.6526 15.34394305 26721

JSON: /api/v1/satellites/68524 · /tle

For live sub-satellite position, see the globe view (requires WebGL).

§ Visibility from observer

Set your observer location to see the next 7 days of passes ≥ 10°. The values pass through the URL so the page stays shareable.

No JS? Fill the form by hand. The geolocation button needs JavaScript.